Location: Cluj-Napoca
(46.7712°N, 23.6236°E)
Time: 18:44:53
(UTC+03:00)

ISS - Pass Details

Date: 25 May 2020
Orbit: 417 x 420 km, 51.6° (Epoch: 26 May)

Event Time Altitude Azimuth Distance (km) Brightness Sun altitude
Rises 23:21:31 0° 295° (WNW) 2,368 1.0 -16.8°
Reaches altitude 10° 23:23:39 10° 299° (WNW) 1,503 -0.1 -17.0°
Maximum altitude 23:26:59 60° 20° (NNE) 487 -3.3 -17.2°
Enters shadow 23:28:26 30° 90° (E) 783 -2.7 -17.4°
